User: anonymous   Login
Location: Unspecified
(0.0000°N, 0.0000°E)
Time: 17:35:37
(UTC+00:00)
Language:

DMSP 5D-3 F18 (USA 210) - Orbit

View from above orbital plane
View from above orbital plane
View from above satellite
View from above satellite

Ground track
Ground track

The orbit data is extracted from the following two-line orbital elements,

1 35951U 09057A   21136.83985505  .00000126  00000-0  89827-4 0  9997
2 35951  98.6790 122.0944 0011907 132.9902 227.2271 14.13356800597094
Epoch (UTC): 16 May 2021 20:09:23
Eccentricity: 0.0011907
inclination: 98.6790°
perigee height: 839 km
apogee height: 856 km
right ascension of ascending node: 122.0944°
argument of perigee: 132.9902°
revolutions per day: 14.13356800
mean anomaly at epoch: 227.2271°
orbit number at epoch: 59709

The dashed part of the orbit path shows where the satellite is in the earth's shadow,  

DLR